SCP
0 0 0 0 0 0 0 0 0 0 0 0 0 0 0 0 0 0 0 0 0 0 0 0 0 0 0 0 0 0 0 0 0 0 0 0 0 0 0 0 0 0 0
0 0 0 0 0 0 0 0 0 0 0 0 0 0 0 0 0 0 0 0 0 0 0 0 0 0 0 0 0 0 0 0 0 0 0 0 0 0 0 0 0 0 0
0 0 0 0 0 0 0 0 0 0 0 0 0 0 0 0 0 0 0 0 0 0 0 0 0 0 0 0 0 0 0 0 0 0 0 0 0 0 0 0 0 0 0
0 0 0 0 0 0 0 0 0 0 0 0 0 0 0 0 0 0 0 0 0 0 0 0 0 0 0 0 0 0 0 0 0 0 0 0 0 0 0 0 0 0 0
0 0 0 0 0 0 0 0 0 0 0 0 0 0 0 0 0 0 0 0 0 0 0 0 0 0 0 0 0 0 0 0 0 0 0 0 0 0 0 0 0 0 0
0 0 0 0 0 0 0 0 0 0 0 0 0 0 0 0 0 0 0 0 0 0 0 0 0 0 0 0 0 0 0 0 0 0 0 0 0 0 0 0 0 0 0
0 0 0 0 0 0 0 0 0 0 0 0 0 0 0 0 0 0 0 0 0 0 0 0 0 0 0 0 0 0 0 0 0 0 0 0 0 0 0 0 0 0 0
0 0 0 0 0 0 0 0 0 0 0 0 0 0 0 0 0 0 0 0 0 0 0 0 0 0 0 0 0 0 0 0 0 0 0 0 0 0 0 0 0 0 0
0 0 0 0 0 0 0 0 0 0 0 0 0 0 0 0 0 0 0 0 0 0 0 0 0 0 0 0 0 0 0 0 0 0 0 0 0 0 0 0 0 0 0
0 0 0 0 0 0 0 0 0 0 0 0 0 0 0 0 0 0 0 0 0 0 0 0 0 0 0 0 0 0 0 0 0 0 0 0 0 0 0 0 0 0 0
0 0 0 0 0 0 0 0 0 0 0 0 0 0 0 0 0 0 0 0 0 0 0 0 0 0 0 0 0 0 0 0 0 0 0 0 0 0 0 0 0 0 0
0 0 0 0 0 0 0 0 0 0 0 0 0 0 0 0 0 0 0 0 0 0 0 0 0 0 0 0 0 0 0 0 0 0 0 0 0 0 0 0 0 0 0
0 0 0 0 0 0 0 0 0 0 0 0 0 0 0 0 0 0 0 0 0 0 0 0 0 0 0 0 0 0 0 0 0 0 0 0 0 0 0 0 0 0 0
0 0 0 0 0 0 0 0 0 0 0 0 0 0 0 0 0 0 0 0 0 0 0 0 0 0 0 0 0 0 0 0 0 0 0 0 0 0 0 0 0 0 0
0 0 0 0 0 0 0 0 0 0 0 0 0 0 0 0 0 0 0 0 0 0 0 0 0 0 0 0 0 0 0 0 0 0 0 0 0 0 0 0 0 0 0
0 0 0 0 0 0 0 0 0 0 0 0 0 0 0 0 0 0 0 0 0 0 0 0 0 0 0 0 0 0 0 0 0 0 0 0 0 0 0 0 0 0 0
0 0 0 0 0 0 0 0 0 0 0 0 0 0 0 0 0 0 0 0 0 0 0 0 0 0 0 0 0 0 0 0 0 0 0 0 0 0 0 0 0 0 0
0 0 0 0 0 0 0 0 0 0 0 0 0 0 0 0 0 0 0 0 0 0 0 0 0 0 0 0 0 0 0 0 0 0 0 0 0 0 0 0 0 0 0
0 0 0 0 0 0 0 0 0 0 0 0 0 0 0 0 0 0 0 0 0 0 0 0 0 0 0 0 0 0 0 0 0 0 0 0 0 0 0 0 0 0 0
0 0 0 0 0 0 0 0 0 0 0 0 0 0 0 0 0 0 0 0 0 0 0 0 0 0 0 0 0 0 0 0 0 0 0 0 0 0 0 0 0 0 0
0 0 0 0 0 0 0 0 0 0 0 0 0 0 0 0 0 0 0 0 0 0 0 0 0 0 0 0 0 0 0 0 0 0 0 0 0 0 0 0 0 0 0
0 0 0 0 0 0 0 0 0 0 0 0 0 0 0 0 0 0 0 0 0 0 0 0 0 0 0 0 0 0 0 0 0 0 0 0 0 0 0 0 0 0 0
0 0 0 0 0 0 0 0 0 0 0 0 0 0 0 0 0 0 0 0 0 0 0 0 0 0 0 0 0 0 0 0 0 0 0 0 0 0 0 0 0 0 0
0 0 0 0 0 0 0 0 0 0 0 0 0 0 0 0 0 0 0 0 0 0 0 0 0 0 0 0 0 0 0 0 0 0 0 0 0 0 0 0 0 0 0
0 0 0 0 0 0 0 0 0 0 0 0 0 0 0 0 0 0 0 0 0 0 0 0 0 0 0 0 0 0 0 0 0 0 0 0 0 0 0 0 0 0 0
0 0 0 0 0 0 0 0 0 0 0 0 0 0 0 0 0 0 0 0 0 0 0 0 0 0 0 0 0 0 0 0 0 0 0 0 0 0 0 0 0 0 0
Wind_Speed
3 2 2 1 1 1 2 2 2 3 3 3 3 2 2 2 2 2 2 5 5 5 4 4 4 4 3 3 3 3 2 2 3 3 3 3 2 2 2 1 1 2 2
3 3 3 2 1 1 1 2 2 2 2 2 3 2 2 2 2 2 2 3 5 5 5 4 4 4 4 3 2 2 2 2 2 2 2 2 3 1 2 0 0 0 0
3 3 2 2 2 2 2 2 2 2 2 2 2 2 2 2 1 2 2 2 2 4 5 5 5 4 4 3 3 3 2 2 2 2 2 2 2 2 2 0 1 1 1
3 3 3 2 2 2 2 2 2 2 2 2 1 1 1 1 1 1 1 2 2 2 3 6 6 5 5 4 4 4 3 2 2 2 2 2 2 2 3 1 1 1 1
3 3 2 2 3 2 2 2 2 2 2 2 1 1 1 1 1 1 1 2 2 2 2 4 6 6 6 5 5 4 4 4 3 3 3 3 3 3 4 3 2 2 2
4 3 2 3 3 2 2 2 2 2 2 2 1 1 1 0 0 1 1 1 1 2 2 2 2 3 5 6 6 5 5 4 4 4 4 4 4 4 4 4 4 3 3
4 4 3 3 3 3 3 3 3 3 2 2 2 1 0 0 0 0 1 1 1 1 2 2 2 2 2 4 6 6 5 5 5 5 5 5 5 5 4 5 5 4 4
3 3 4 3 3 3 3 3 3 2 2 2 2 2 2 2 2 1 1 1 1 1 1 2 2 2 3 2 4 6 6 6 6 6 6 6 6 6 6 5 6 6 6
3 3 3 3 3 3 3 4 4 4 3 3 1 2 2 2 1 2 2 2 2 2 2 2 2 3 2 2 3 4 6 6 7 6 6 7 7 7 7 7 6 7 7
2 3 3 3 3 3 3 4 4 3 4 4 2 2 2 1 2 2 2 2 2 3 3 2 3 3 3 2 3 5 7 7 7 7 7 7 7 7 7 7 8 8 8
2 2 3 3 3 3 3 4 4 4 3 4 3 2 2 2 3 3 3 3 3 3 3 3 3 3 3 3 2 4 6 7 7 7 7 7 7 6 6 7 8 8 8
1 1 2 3 3 3 4 4 4 4 4 4 3 3 3 3 3 3 4 4 4 3 3 3 3 3 3 3 3 4 6 6 6 6 6 7 7 6 6 7 8 9 9
1 2 2 2 2 3 3 3 4 4 4 4 4 3 3 3 3 3 4 3 4 3 3 3 3 3 3 3 3 4 5 6 6 6 6 6 7 7 7 8 8 9 10
2 2 2 2 2 2 3 3 3 4 3 4 4 5 3 3 3 3 3 3 3 4 4 4 2 3 3 3 4 5 5 6 7 7 7 7 6 7 7 8 9 9 11
1 2 2 2 2 2 2 3 3 4 4 4 4 4 4 3 3 3 3 3 4 5 5 4 3 3 3 3 4 5 5 6 7 8 7 7 7 7 8 8 9 9 10
1 2 2 3 2 2 3 3 2 3 4 4 3 4 4 3 3 3 3 3 4 5 5 3 3 3 3 3 5 5 6 7 7 7 7 7 7 7 8 8 9 10 10
1 2 2 2 3 3 3 3 3 3 4 4 4 5 5 5 4 3 3 3 4 4 6 4 3 3 5 5 4 5 5 5 5 6 7 8 8 7 8 9 10 10 10
1 2 2 2 3 3 3 3 3 3 4 4 4 5 5 4 5 4 4 4 4 4 5 6 4 4 5 5 5 5 5 4 5 6 7 7 8 8 8 9 9 9 10
2 2 2 2 3 3 3 3 4 4 5 5 5 5 5 5 5 4 5 4 4 4 4 4 5 4 4 4 5 5 6 5 5 5 7 7 7 8 8 8 9 9 10
2 2 2 3 3 3 3 3 4 4 5 5 5 5 5 5 5 5 5 5 4 4 4 4 5 4 4 4 4 4 5 4 4 4 6 6 7 8 8 8 9 9 10
2 3 3 3 3 3 3 3 4 4 5 5 5 5 5 6 6 6 5 5 5 5 5 5 5 5 4 3 4 4 5 5 5 4 5 5 5 5 5 7 8 9 10
2 3 3 3 3 2 3 4 4 5 5 5 5 4 4 5 6 7 7 8 7 6 6 5 5 6 6 6 5 4 4 5 5 3 5 5 4 5 5 4 7 10 10
3 3 3 3 4 4 4 4 5 5 5 5 5 4 4 3 5 5 6 7 7 8 9 7 7 7 7 6 5 6 6 6 6 4 5 6 5 6 5 5 9 9 10
3 3 4 4 4 4 5 5 6 5 5 5 5 5 5 5 4 5 5 6 6 6 7 7 7 8 7 6 6 7 7 6 6 4 4 5 5 5 5 5 8 9 10
3 4 4 4 5 5 5 5 5 4 4 5 4 4 5 5 6 6 6 6 6 5 6 8 9 9 9 9 7 5 5 5 6 5 4 4 4 5 5 6 6 8 9
3 3 4 4 5 5 6 6 5 3 4 4 4 4 5 6 7 7 6 5 6 6 5 5 6 6 6 6 7 6 5 6 5 5 3 3 4 4 5 4 4 4 5
Wind_Direction
147 140 140 143 137 136 138 128 119 110 100 89 84 82 77 63 51 41 48 39 26 31 40 45 51 54 51 52 52 42 30 33 28 28 34 32 38 49 36 78 72 70 61
155 154 151 152 143 144 142 135 129 120 109 98 91 82 78 72 53 33 27 43 33 31 33 35 41 37 33 33 31 20 10 4 11 18 24 32 20 360 7 262 131 77 54
157 156 153 154 150 149 145 133 125 122 112 103 94 81 69 54 47 33 20 11 22 36 28 29 36 27 19 17 12 355 343 344 348 357 2 5 5 358 342 284 214 243 247
158 157 156 158 151 150 151 144 144 137 127 119 108 92 72 51 31 42 39 21 9 11 27 26 26 21 12 5 356 352 345 328 330 337 334 332 328 339 327 251 219 249 257
159 158 159 156 154 151 154 153 153 153 145 138 115 94 73 45 3 38 47 30 19 12 13 22 18 15 10 6 355 349 347 338 331 330 329 314 304 304 320 265 240 252 254
160 162 158 160 158 153 154 158 154 153 154 142 126 106 60 32 335 18 7 17 20 18 9 358 0 5 2 357 353 345 343 342 340 329 327 315 300 288 297 283 246 249 256
161 167 164 163 161 165 167 164 157 155 147 155 157 152 145 156 232 293 308 309 358 1 354 347 339 337 339 348 346 338 330 330 331 334 332 326 314 299 288 295 271 250 252
168 172 175 168 169 170 170 167 163 168 161 180 195 196 213 213 206 244 261 285 297 310 314 324 327 330 330 329 346 339 330 329 328 324 325 323 323 316 297 303 290 266 253
170 173 179 171 175 176 179 182 181 180 181 185 215 229 225 233 244 208 228 248 274 288 294 302 305 311 311 322 325 341 337 332 326 318 317 316 317 317 318 305 298 290 266
168 177 178 174 178 183 187 189 193 194 192 194 196 252 280 278 244 236 214 229 259 272 275 278 282 291 297 304 328 344 346 339 331 325 318 313 311 308 313 320 311 294 283
167 177 182 182 184 188 192 192 195 197 202 209 205 201 214 231 246 251 254 245 251 252 265 270 273 280 288 296 306 337 340 335 332 329 322 313 308 306 313 313 315 304 298
159 172 183 187 191 194 198 199 199 200 203 210 214 212 213 217 222 238 255 262 264 257 259 265 268 276 279 281 301 325 319 319 319 322 321 319 316 311 311 307 312 310 306
184 197 189 188 193 197 200 202 202 208 210 211 216 222 229 240 243 241 245 261 269 269 254 251 258 269 271 278 286 302 296 303 307 309 311 310 310 310 306 305 299 311 304
198 200 194 196 195 194 196 196 203 211 213 216 222 226 228 235 237 237 241 245 261 262 251 251 247 253 269 279 292 291 284 292 296 296 296 296 298 301 303 299 295 302 300
198 200 193 195 195 197 194 197 205 207 209 216 222 225 229 230 236 243 242 241 248 261 260 251 248 250 270 276 288 280 281 289 289 287 285 285 289 291 292 293 296 297 298
203 204 197 198 195 200 203 199 209 216 215 219 222 224 230 233 232 237 241 246 250 257 262 266 272 286 276 279 286 283 284 286 282 284 282 282 284 286 289 292 295 296 297
214 213 214 208 206 205 209 211 215 221 225 229 229 228 234 236 237 237 237 240 244 249 257 272 279 286 276 273 279 282 288 287 283 283 278 277 278 278 285 290 290 293 295
225 224 222 221 220 217 217 220 225 226 227 230 235 232 233 233 237 240 239 241 245 250 256 267 276 279 278 279 281 281 285 287 286 289 282 278 273 276 280 283 285 287 291
227 230 232 234 234 230 228 228 228 229 232 232 233 234 235 232 237 241 240 242 245 251 255 262 274 282 282 283 286 284 281 279 284 285 278 274 277 279 278 280 283 285 288
234 233 239 239 240 238 232 232 231 234 236 236 236 236 237 236 240 243 243 243 243 245 248 254 263 272 276 284 280 284 285 280 282 283 274 277 278 273 273 276 280 282 283
243 239 240 244 244 243 234 232 239 241 242 242 240 239 240 245 251 252 250 247 245 245 246 252 261 268 270 278 272 278 281 289 287 280 280 279 276 270 268 271 273 277 278
255 244 241 242 244 251 256 251 253 246 245 244 245 245 244 242 247 254 260 260 254 248 248 251 256 260 267 272 277 273 278 288 283 276 279 281 277 272 275 272 274 274 273
262 252 246 245 247 254 259 259 261 258 250 248 247 247 251 251 250 251 257 261 262 260 254 253 256 260 267 270 272 271 268 272 275 287 282 275 274 271 278 277 279 276 278
263 260 256 250 251 255 261 260 260 253 254 251 248 247 247 250 252 257 257 256 258 259 259 256 257 263 268 270 263 264 270 276 283 277 267 272 279 278 280 274 276 275 279
272 271 265 257 256 262 265 266 265 255 255 257 256 253 252 253 257 262 260 260 266 268 271 267 269 271 272 271 267 264 262 264 274 272 261 266 279 289 283 271 270 274 277
272 278 276 268 264 263 267 272 273 260 260 264 262 257 254 261 267 265 259 257 260 268 276 281 278 277 272 267 262 254 252 256 269 270 249 252 273 289 284 271 271 276 274